[[{"header":{"parameterUnit":"m.s-1","parameterCategory":2,"la1":30.2991,"la2":30.254,"lo1":-89.0895,"lo2":-89.0444,"dy":0.0017,"dx":0.0017,"nx":28,"ny":28,"refTime":"2026-01-07T09:00:00:Z","depth":"0","parameterNumber":2,"parameterNumberName":"U-component_of_CURRENTS"},"data":[0,0,0,0,0,0,0,0,0,0,0,0,0,0,0,0,0,0,0,0,0,0,0,0,0,0,0,0,0,0,0,0,0,0,0,0,0,0,0,0,0,0,0,0,0,0,0,0,0,0,0,0,0,0,0,0,0,0,0.2322,0.2323,0,0.2358,0.2359,0.2359,0.2389,0.2389,0.2389,0.239,0.2463,0.2465,0.2466,0,0,0,0,0,0,0,0,0,0,0,0,0,0.2287,0.2287,0.2322,0.2323,0.2323,0.2358,0.2359,0.2359,0.2389,0.2389,0.239,0.239,0.2463,0.2465,0.2467,0,0,0,0,0,0,0,0,0,0,0,0,0,0.231,0.2287,0.2322,0.2342,0.2344,0.2358,0.2359,0.2359,0.2389,0.2389,0.239,0.239,0.2462,0.2464,0.2467,0.2473,0,0,0.2475,0.2476,0,0,0,0,0,0,0,0,0.2309,0.2312,0.2339,0.2341,0.2343,0.2369,0.2373,0.2399,0.2389,0.2372,0.239,0.239,0.2435,0.244,0.2445,0.2477,0.248,0.2475,0.2476,0.2477,0.2478,0,0,0,0,0,0,0,0.2307,0.231,0.2337,0.2339,0.2342,0.2352,0.2356,0.2378,0.2401,0.2373,0.2376,0.2379,0.2436,0.2443,0.2447,0.2481,0.2475,0.2477,0.2478,0.2479,0.2588,0.2589,0,0,0,0,0,0,0.2302,0.2309,0.2336,0.2338,0.2327,0.2352,0.2356,0.2361,0.24,0.2406,0.2379,0.2381,0.2438,0.2444,0.245,0.2493,0.2477,0.248,0.2481,0.2586,0.2588,0.2589,0,0,0,0,0,0,0.2301,0.2304,0.2334,0.2324,0.2329,0.2352,0.2357,0.2361,0.2373,0.2404,0.2411,0.2387,0.2439,0.2446,0.2489,0.2495,0.2481,0.2483,0.2585,0.2587,0.2589,0.2557,0,0,0,0,0,0,0.23,0.2303,0.2305,0.2324,0.2329,0.2349,0.2357,0.2362,0.2374,0.2377,0.2413,0.242,0.244,0.2485,0.2491,0.2498,0.2485,0.2583,0.2586,0.2588,0.2557,0.2558,0.2559,0,0,0,0,0,0.2298,0.23,0.2305,0.2308,0.233,0.2349,0.2353,0.2371,0.2374,0.2382,0.2415,0.2419,0.2506,0.2488,0.2495,0.2502,0.2582,0.2585,0.2588,0.2556,0.2558,0.2559,0,0,0,0,0,0,0.2281,0.2303,0.2309,0.2316,0.2334,0.2355,0.2356,0.2371,0.2401,0.2399,0.2433,0.2443,0.2482,0.2504,0.2483,0.2546,0.2546,0.255,0.2519,0.2521,0.2522,0.2496,0.2487,0,0,0,0,0,0.2278,0.2286,0.2308,0.2312,0.2316,0.2335,0.2344,0.2356,0.2383,0.2395,0.2425,0.2461,0.2499,0.2519,0.2552,0.2582,0.2607,0.2595,0.2597,0.2597,0.2584,0.265,0.2656,0.26,0.2599,0.2599,0,0,0.2265,0.2284,0.2283,0.231,0.2317,0.2324,0.2341,0.2349,0.2362,0.2398,0.2426,0.2463,0.251,0.2547,0.2567,0.2565,0.2627,0.2601,0.2601,0.2587,0.2654,0.2659,0.2664,0.2602,0.2601,0.2601,0,0,0.2247,0.2263,0.2261,0.2279,0.2297,0.2312,0.2315,0.2339,0.2356,0.2389,0.2424,0.2465,0.2518,0.2553,0.2578,0.2608,0.2632,0.2625,0.2606,0.2671,0.2676,0.268,0.2711,0.2719,0.2625,0.2625,0.2625,0,0.2227,0.2235,0.2263,0.2271,0.2277,0.2305,0.2301,0.2326,0.2367,0.2383,0.2396,0.2484,0.2518,0.2571,0.2582,0.2607,0.2641,0.259,0.267,0.2675,0.268,0.2712,0.272,0.2624,0.2624,0.2624,0.2624,0,0.221,0.2218,0.2216,0.2236,0.2252,0.2251,0.2286,0.2306,0.2329,0.2359,0.2413,0.247,0.2521,0.2546,0.2569,0.2624,0.2635,0.2662,0.2657,0.2683,0.2715,0.2725,0.2622,0.2623,0.2623,0.2623,0,0,0.2149,0.2192,0.219,0.2194,0.223,0.2236,0.226,0.2289,0.2306,0.2357,0.2388,0.2457,0.2487,0.2518,0.2564,0.2616,0.2675,0.2647,0.2651,0.266,0.2802,0.2761,0.2767,0.2723,0.2725,0.2726,0.2807,0,0.2116,0.2122,0.2157,0.2154,0.215,0.2193,0.2217,0.2255,0.2295,0.2339,0.2402,0.2453,0.2481,0.2509,0.2565,0.2655,0.27,0.2649,0.279,0.2793,0.274,0.2777,0.2704,0.2766,0.2816,0.2818,0.2819,0,0.208,0.209,0.2081,0.2113,0.2114,0.2123,0.2157,0.2187,0.2261,0.2298,0.2357,0.2415,0.2493,0.2518,0.2662,0.2633,0.2704,0.2769,0.2774,0.2749,0.277,0.2753,0.2782,0.262,0.2833,0.2832,0.2831,0,0.2014,0.2035,0.2025,0.2035,0.2077,0.2081,0.2103,0.2166,0.2194,0.2274,0.2306,0.2408,0.2463,0.2575,0.2693,0.2691,0.285,0.2869,0.2894,0.2891,0.286,0.2851,0.2732,0.2964,0.2964,0.2964,0.2964,0,0.1965,0.1953,0.1993,0.1985,0.198,0.2028,0.2035,0.2081,0.2147,0.2184,0.2278,0.233,0.2485,0.2592,0.2696,0.2816,0.2857,0.2886,0.2915,0.2846,0.2836,0.2719,0.2669,0.2967,0.2966,0.2966,0.2965,0,0.1891,0.1918,0.1908,0.1939,0.1948,0.1943,0.1986,0.2001,0.2074,0.2125,0.2151,0.2286,0.2424,0.2568,0.2753,0.281,0.2847,0.2968,0.2854,0.2867,0.2714,0.2667,0.2568,0.2511,0.3,0.2999,0.2999,0,0.1853,0.1844,0.1864,0.1857,0.1866,0.1871,0.1882,0.1954,0.1979,0.2097,0.2121,0.2262,0.2361,0.2595,0.2746,0.2911,0.282,0.2905,0.288,0.268,0.2652,0.2556,0.2509,0.2832,0.283,0.2829,0.2827,0,0.1779,0.1791,0.1785,0.1774,0.1775,0.1779,0.1801,0.1818,0.191,0.1967,0.2056,0.2144,0.237,0.2495,0.2697,0.2811,0.2725,0.2878,0.2721,0.2538,0.2382,0.2349,0.2776,0.2815,0.2816,0.2817,0.2818,0.2818,0.1721,0.1701,0.17,0.1685,0.1686,0.1683,0.1675,0.1722,0.1765,0.185,0.196,0.2067,0.2239,0.2521,0.2608,0.2624,0.2647,0.2563,0.2535,0.2463,0.2354,0.2723,0.2761,0.2762,0.2763,0.2764,0.2764,0,0.1637,0.1627,0.1611,0.1592,0.1567,0.1596,0.1618,0.1619,0.1656,0.1753,0.1833,0.1965,0.2085,0.223,0.233,0.2269,0.2243,0.2191,0.2027,0.2013,0.2385,0.2319,0.2201,0.2201,0.2202,0.2202,0.2202,0.2202,0.1591,0.1548,0.1543,0.1482,0.1469,0.1434,0.1438,0.1469,0.1528,0.1587,0.1643,0.1729,0.1837,0.1886,0.1857,0.1876,0.1723,0.1673,0.1643,0.1865,0.1896,0.1925,0.1845,0.163,0.163,0.1215,0.1212,0.1209]},{"header":{"parameterUnit":"m.s-1","parameterCategory":2,"la1":30.2991,"la2":30.254,"lo1":-89.0895,"lo2":-89.0444,"dy":0.0017,"dx":0.0017,"nx":28,"ny":28,"refTime":"2026-01-07T09:00:00:Z","depth":"0","parameterNumber":3,"parameterNumberName":"V-component_of_CURRENTS"},"data":[0,0,0,0,0,0,0,0,0,0,0,0,0,0,0,0,0,0,0,0,0,0,0,0,0,0,0,0,0,0,0,0,0,0,0,0,0,0,0,0,0,0,0,0,0,0,0,0,0,0,0,0,0,0,0,0,0,0,0.077,0.077,0,0.079,0.0791,0.0791,0.0798,0.0798,0.0798,0.0797,0.0803,0.0803,0.0804,0,0,0,0,0,0,0,0,0,0,0,0,0,0.0772,0.0772,0.077,0.077,0.077,0.079,0.0791,0.0791,0.0798,0.0798,0.0798,0.0797,0.0803,0.0803,0.0804,0,0,0,0,0,0,0,0,0,0,0,0,0,0.0782,0.0772,0.077,0.0774,0.0775,0.079,0.0791,0.0792,0.0798,0.0798,0.0798,0.0797,0.0802,0.0803,0.0804,0.0817,0,0,0.0806,0.0806,0,0,0,0,0,0,0,0,0.0781,0.0782,0.0774,0.0774,0.0774,0.0789,0.0793,0.0798,0.0799,0.0792,0.0797,0.0797,0.0796,0.0797,0.0805,0.0817,0.0817,0.0806,0.0806,0.0806,0.0807,0,0,0,0,0,0,0,0.078,0.0781,0.0781,0.0774,0.0774,0.0787,0.0788,0.0795,0.0798,0.0793,0.0793,0.0791,0.0796,0.0805,0.0805,0.0817,0.0806,0.0806,0.0807,0.0807,0.083,0.083,0,0,0,0,0,0,0.0772,0.0781,0.078,0.0781,0.0774,0.0787,0.0788,0.0787,0.0798,0.0799,0.0791,0.0791,0.0804,0.0805,0.0806,0.0833,0.0806,0.0807,0.0807,0.083,0.083,0.083,0,0,0,0,0,0,0.0772,0.0771,0.0779,0.0779,0.0781,0.0787,0.0786,0.0788,0.0797,0.0797,0.0798,0.0798,0.0804,0.0805,0.0825,0.0832,0.0807,0.0808,0.083,0.083,0.083,0.0879,0,0,0,0,0,0,0.0772,0.0771,0.0777,0.0779,0.078,0.0804,0.0786,0.0788,0.0795,0.0795,0.0803,0.0803,0.0803,0.0824,0.0825,0.0833,0.0808,0.0829,0.083,0.083,0.0877,0.0881,0.0885,0,0,0,0,0,0.0772,0.0783,0.0777,0.0777,0.0784,0.0805,0.0809,0.0812,0.0796,0.0816,0.0816,0.0803,0.0827,0.0826,0.0827,0.0834,0.0829,0.083,0.083,0.0876,0.0881,0.0885,0,0,0,0,0,0,0.0785,0.0785,0.0778,0.0787,0.08,0.0806,0.0815,0.0814,0.083,0.0822,0.0819,0.082,0.0835,0.0828,0.0827,0.0839,0.0821,0.0821,0.0855,0.0859,0.0863,0.0856,0.0809,0,0,0,0,0,0.0789,0.0802,0.08,0.0812,0.0809,0.081,0.0818,0.0821,0.0829,0.0835,0.0847,0.0844,0.0839,0.0845,0.0847,0.0865,0.0842,0.0865,0.0868,0.0872,0.0866,0.0851,0.0853,0.0832,0.0832,0.0832,0,0,0.0797,0.0799,0.0806,0.0817,0.0817,0.0835,0.0815,0.0828,0.0849,0.0832,0.087,0.0861,0.0845,0.0864,0.0868,0.0861,0.0865,0.0872,0.0875,0.0868,0.0852,0.0854,0.0856,0.0833,0.0832,0.0832,0,0,0.0822,0.0817,0.0833,0.0843,0.0848,0.0855,0.0858,0.0872,0.088,0.091,0.0892,0.089,0.0907,0.0896,0.0886,0.0908,0.0883,0.0907,0.0927,0.0913,0.0915,0.0916,0.089,0.0888,0.0912,0.0912,0.0912,0,0.0827,0.085,0.0844,0.086,0.087,0.0864,0.0884,0.0896,0.0925,0.0928,0.0928,0.0925,0.0917,0.0908,0.0917,0.0916,0.0903,0.0915,0.0919,0.0919,0.092,0.0892,0.089,0.0915,0.0914,0.0914,0.0914,0,0.0863,0.0882,0.0889,0.0909,0.0923,0.0943,0.0947,0.0968,0.0971,0.098,0.0982,0.0973,0.0965,0.096,0.0947,0.0941,0.0929,0.0925,0.091,0.0925,0.0895,0.0892,0.0918,0.0917,0.0916,0.0916,0,0,0.0865,0.0907,0.0909,0.0925,0.0949,0.0961,0.0987,0.1006,0.1012,0.1032,0.104,0.1023,0.1009,0.0995,0.0975,0.0963,0.0954,0.0951,0.0949,0.0929,0.0919,0.0883,0.0876,0.0959,0.0959,0.0958,0.0897,0,0.0892,0.0932,0.0951,0.0996,0.1009,0.1016,0.1042,0.1055,0.1063,0.1081,0.1047,0.1051,0.1024,0.1018,0.1002,0.0972,0.0948,0.097,0.0904,0.0901,0.0871,0.0872,0.0881,0.0825,0.0894,0.0893,0.0893,0,0.0913,0.094,0.098,0.1025,0.1029,0.1059,0.1077,0.1104,0.1111,0.1112,0.1101,0.1087,0.1067,0.1044,0.0988,0.1009,0.0962,0.0932,0.0929,0.0874,0.0859,0.0821,0.0816,0.0713,0.0887,0.0888,0.0888,0,0.0904,0.096,0.0993,0.1008,0.1054,0.1069,0.1096,0.1109,0.1125,0.1133,0.1142,0.1114,0.1103,0.1054,0.0996,0.0995,0.0934,0.0923,0.0837,0.0833,0.0814,0.0809,0.0703,0.0867,0.0867,0.0867,0.0867,0,0.092,0.0947,0.0991,0.1008,0.1044,0.1071,0.1103,0.112,0.1143,0.1166,0.1158,0.1164,0.1108,0.1073,0.101,0.0918,0.0941,0.0831,0.0815,0.083,0.0828,0.0715,0.067,0.0865,0.0865,0.0866,0.0866,0,0.0906,0.0937,0.0976,0.1026,0.104,0.1063,0.1117,0.1141,0.1162,0.119,0.1197,0.12,0.1161,0.1095,0.1013,0.093,0.0796,0.0805,0.082,0.0806,0.0616,0.0574,0.0475,0.0442,0.0691,0.0689,0.0688,0,0.0904,0.092,0.0976,0.0999,0.1026,0.1065,0.1094,0.1137,0.1165,0.1211,0.1227,0.1212,0.1209,0.1081,0.0948,0.0822,0.0755,0.0717,0.0704,0.0595,0.0537,0.0535,0.0516,0.0697,0.0696,0.0696,0.0695,0,0.0899,0.0916,0.0948,0.0992,0.103,0.1076,0.1125,0.115,0.1202,0.124,0.128,0.129,0.118,0.1069,0.0897,0.0807,0.066,0.0695,0.0588,0.0529,0.0516,0.0482,0.0737,0.0689,0.0689,0.069,0.069,0.069,0.0887,0.0908,0.0946,0.0988,0.1033,0.1087,0.1124,0.1183,0.124,0.1312,0.1321,0.1359,0.1194,0.0972,0.0833,0.0564,0.0582,0.0473,0.0429,0.0435,0.0406,0.0632,0.0563,0.0563,0.0563,0.0563,0.0563,0,0.0868,0.09,0.0943,0.0997,0.1041,0.1072,0.1142,0.1188,0.126,0.1343,0.1395,0.1343,0.113,0.0908,0.0544,0.0338,0.0314,0.0231,0.0231,0.0222,0.0422,0.0423,0.0315,0.0315,0.0315,0.0315,0.0315,0.0315,0.086,0.0889,0.0917,0.0983,0.1026,0.1085,0.1127,0.1211,0.1283,0.1377,0.141,0.1431,0.1211,0.0606,0.0194,0.0119,0.001,-0.0019,-0.0084,0.0042,0.0062,0.0081,0.0069,-0.0111,-0.0112,-0.0234,-0.0235,-0.0237]}],[{"header":{"parameterUnit":"m.s-1","parameterCategory":2,"la1":30.2991,"la2":30.254,"lo1":-89.0895,"lo2":-89.0444,"dy":0.0017,"dx":0.0017,"nx":28,"ny":28,"refTime":"2026-01-07T09:00:00:Z","depth":"2","parameterNumber":2,"parameterNumberName":"U-component_of_CURRENTS"},"data":[0,0,0,0,0,0,0,0,0,0,0,0,0,0,0,0,0,0,0,0,0,0,0,0,0,0,0,0,0,0,0,0,0,0,0,0,0,0,0,0,0,0,0,0,0,0,0,0,0,0,0,0,0,0,0,0,0,0,0.1092,0.1092,0,0.1092,0.1092,0.1092,0.1072,0.1072,0.1071,0.1071,0.1053,0.1053,0.1052,0,0,0,0,0,0,0,0,0,0,0,0,0,0.1076,0.1076,0.1092,0.1092,0.1092,0.1092,0.1092,0.1092,0.1072,0.1072,0.1071,0.1071,0.1053,0.1053,0.1052,0,0,0,0,0,0,0,0,0,0,0,0,0,0.1078,0.1076,0.1092,0.1084,0.1083,0.1092,0.1092,0.1092,0.1072,0.1072,0.1071,0.1071,0.1053,0.1053,0.1052,0.106,0,0,0.1051,0.1051,0,0,0,0,0,0,0,0,0.1078,0.1078,0.1085,0.1085,0.1084,0.1084,0.108,0.1081,0.1072,0.1074,0.1071,0.1071,0.1063,0.1062,0.106,0.1059,0.1058,0.1051,0.1051,0.1051,0.1051,0,0,0,0,0,0,0,0.1078,0.1078,0.1089,0.1085,0.1085,0.1082,0.1081,0.108,0.1069,0.1074,0.1073,0.1077,0.1062,0.106,0.106,0.1058,0.1051,0.1051,0.1051,0.1051,0.1091,0.1093,0,0,0,0,0,0,0.1083,0.1078,0.109,0.109,0.1082,0.1082,0.1082,0.1082,0.1069,0.1068,0.1077,0.1076,0.1061,0.106,0.1059,0.1097,0.1051,0.1051,0.1051,0.109,0.1092,0.1093,0,0,0,0,0,0,0.1083,0.1084,0.109,0.1086,0.1087,0.1083,0.1084,0.1083,0.109,0.1073,0.107,0.1088,0.1061,0.1059,0.1075,0.1095,0.1051,0.105,0.1089,0.1091,0.1092,0.1154,0,0,0,0,0,0,0.1082,0.1084,0.1091,0.1086,0.1087,0.1105,0.1085,0.1083,0.1094,0.1092,0.1081,0.1078,0.106,0.1076,0.1075,0.1093,0.105,0.1087,0.1089,0.1092,0.115,0.1157,0.1164,0,0,0,0,0,0.1081,0.109,0.1091,0.1093,0.1096,0.1106,0.1107,0.1101,0.1095,0.1104,0.1101,0.1079,0.1089,0.1077,0.1075,0.1094,0.1086,0.1089,0.1092,0.1147,0.1156,0.1163,0,0,0,0,0,0,0.1088,0.1089,0.109,0.11,0.1109,0.1104,0.1113,0.1112,0.1116,0.1116,0.1097,0.1095,0.1117,0.11,0.1086,0.1114,0.1083,0.1086,0.1126,0.1134,0.1141,0.1139,0.105,0,0,0,0,0,0.1094,0.11,0.1106,0.1115,0.1122,0.1122,0.1127,0.1126,0.1128,0.1129,0.1125,0.1121,0.1127,0.1126,0.1128,0.1142,0.1144,0.1153,0.116,0.1166,0.1164,0.1192,0.1201,0.1102,0.1102,0.1102,0,0,0.1098,0.1102,0.1105,0.1117,0.1122,0.1134,0.1123,0.1138,0.1149,0.1128,0.1145,0.115,0.1139,0.1158,0.1165,0.1145,0.12,0.117,0.1175,0.117,0.1196,0.1206,0.1214,0.1104,0.1104,0.1104,0,0,0.1106,0.1116,0.1122,0.1133,0.1149,0.1152,0.1162,0.117,0.1176,0.1196,0.1189,0.1208,0.1207,0.121,0.1207,0.1253,0.1241,0.1254,0.128,0.1308,0.1316,0.1323,0.1359,0.1368,0.1251,0.1251,0.1251,0,0.1113,0.1119,0.1128,0.114,0.115,0.1163,0.1175,0.1188,0.1202,0.1214,0.1208,0.1235,0.123,0.1255,0.1271,0.1268,0.1284,0.1249,0.1317,0.1324,0.133,0.1364,0.1374,0.1254,0.1254,0.1254,0.1253,0,0.1121,0.1132,0.114,0.1157,0.1173,0.1188,0.1207,0.123,0.1241,0.1251,0.1288,0.1293,0.1307,0.1314,0.1304,0.135,0.1349,0.1329,0.1296,0.1344,0.1377,0.1387,0.1259,0.1258,0.1257,0.1256,0,0,0.1118,0.114,0.1144,0.1153,0.1183,0.1194,0.1227,0.1255,0.1278,0.1303,0.1331,0.1356,0.1369,0.1369,0.1372,0.1392,0.1461,0.1382,0.1382,0.1417,0.1536,0.1493,0.1499,0.1456,0.1457,0.1458,0.1549,0,0.1122,0.1138,0.1152,0.1176,0.1186,0.1215,0.1243,0.1275,0.1301,0.1336,0.136,0.1389,0.1387,0.1403,0.143,0.1451,0.1485,0.1439,0.1483,0.1485,0.144,0.1508,0.1303,0.1362,0.1558,0.1559,0.156,0,0.1123,0.1133,0.115,0.1181,0.1191,0.1212,0.126,0.1288,0.1342,0.1365,0.1407,0.1426,0.1477,0.146,0.1534,0.1507,0.1531,0.1544,0.1547,0.1487,0.1458,0.1341,0.1371,0.1575,0.1574,0.1573,0.1572,0,0.1105,0.1133,0.1145,0.1155,0.1194,0.1216,0.1245,0.1298,0.1324,0.139,0.1417,0.1477,0.151,0.1551,0.1591,0.1569,0.1665,0.1634,0.1623,0.1621,0.1443,0.1422,0.169,0.169,0.1689,0.1689,0.1689,0,0.1098,0.111,0.1139,0.1145,0.1171,0.1207,0.1246,0.1285,0.1342,0.1379,0.1434,0.1474,0.1535,0.1592,0.1619,0.166,0.1696,0.1644,0.1644,0.1461,0.1441,0.1611,0.16,0.1692,0.1692,0.1691,0.169,0,0.1076,0.1094,0.1108,0.1146,0.116,0.118,0.1236,0.1264,0.1327,0.1378,0.1401,0.1488,0.1574,0.1634,0.1708,0.1692,0.1732,0.1737,0.1526,0.1499,0.1663,0.1655,0.1732,0.1732,0.1731,0.173,0.173,0,0.1062,0.1065,0.1098,0.1106,0.1124,0.116,0.1185,0.125,0.1281,0.1382,0.1403,0.1507,0.1567,0.167,0.1615,0.1651,0.1763,0.154,0.1452,0.1677,0.167,0.1662,0.1655,0.1252,0.1248,0.1244,0.1242,0,0.1033,0.1048,0.1059,0.1075,0.1097,0.1122,0.1165,0.1184,0.1265,0.1316,0.1399,0.1456,0.1499,0.1439,0.1477,0.1467,0.1512,0.147,0.1764,0.1272,0.1231,0.1222,0.1229,0.121,0.1213,0.1216,0.1217,0.1219,0.1011,0.1012,0.1026,0.1042,0.1063,0.1081,0.1093,0.1136,0.118,0.123,0.1321,0.1337,0.1295,0.1219,0.122,0.1211,0.129,0.1275,0.1283,0.1295,0.1222,0.1182,0.114,0.1142,0.1145,0.1147,0.1148,0,0.0979,0.0986,0.0992,0.1007,0.1011,0.1045,0.1075,0.1069,0.1099,0.1127,0.1176,0.1003,0.0968,0.1008,0.0877,0.0874,0.0824,0.0932,0.0854,0.0882,0.0909,0.0815,0.0625,0.0625,0.0625,0.0624,0,0,0.0961,0.0952,0.0955,0.0949,0.0968,0.0974,0.0985,0.097,0.0967,0.0904,0.0869,0.0885,0.0901,0.0717,0.0693,0.0674,0.0786,0.0649,0.1046,0.0978,0.1004,0.1063,0.0945,0,0,0,0,0]},{"header":{"parameterUnit":"m.s-1","parameterCategory":2,"la1":30.2991,"la2":30.254,"lo1":-89.0895,"lo2":-89.0444,"dy":0.0017,"dx":0.0017,"nx":28,"ny":28,"refTime":"2026-01-07T09:00:00:Z","depth":"2","parameterNumber":3,"parameterNumberName":"V-component_of_CURRENTS"},"data":[0,0,0,0,0,0,0,0,0,0,0,0,0,0,0,0,0,0,0,0,0,0,0,0,0,0,0,0,0,0,0,0,0,0,0,0,0,0,0,0,0,0,0,0,0,0,0,0,0,0,0,0,0,0,0,0,0,0,-0.0245,-0.0246,0,-0.0309,-0.031,-0.0311,-0.0372,-0.0373,-0.0373,-0.0374,-0.0486,-0.0488,-0.049,0,0,0,0,0,0,0,0,0,0,0,0,0,-0.0202,-0.0202,-0.0245,-0.0246,-0.0246,-0.0309,-0.031,-0.0311,-0.0372,-0.0373,-0.0373,-0.0374,-0.0485,-0.0488,-0.049,0,0,0,0,0,0,0,0,0,0,0,0,0,-0.024,-0.0202,-0.0245,-0.0283,-0.0287,-0.0309,-0.031,-0.0312,-0.0372,-0.0373,-0.0374,-0.0374,-0.0484,-0.0487,-0.0491,-0.0495,0,0,-0.0502,-0.0503,0,0,0,0,0,0,0,0,-0.0238,-0.0242,-0.0277,-0.028,-0.0285,-0.0332,-0.0336,-0.0375,-0.0371,-0.0341,-0.0374,-0.0375,-0.0437,-0.0444,-0.0456,-0.05,-0.0505,-0.0502,-0.0504,-0.0506,-0.0507,0,0,0,0,0,0,0,-0.0235,-0.024,-0.0272,-0.0277,-0.0282,-0.0306,-0.0312,-0.0344,-0.0385,-0.0344,-0.0348,-0.0352,-0.044,-0.0452,-0.0459,-0.0506,-0.0502,-0.0505,-0.0508,-0.0509,-0.0591,-0.0591,0,0,0,0,0,0,-0.0222,-0.0237,-0.027,-0.0274,-0.0261,-0.0306,-0.0313,-0.0317,-0.0384,-0.0394,-0.0351,-0.0355,-0.0446,-0.0455,-0.0463,-0.0485,-0.0506,-0.0509,-0.0511,-0.0591,-0.0591,-0.0591,0,0,0,0,0,0,-0.022,-0.0224,-0.0267,-0.0256,-0.0263,-0.0305,-0.031,-0.0318,-0.034,-0.0389,-0.0401,-0.0366,-0.0447,-0.0458,-0.0496,-0.049,-0.0511,-0.0514,-0.0591,-0.0591,-0.0591,-0.052,0,0,0,0,0,0,-0.0219,-0.0223,-0.0227,-0.0255,-0.0263,-0.0282,-0.0309,-0.0319,-0.034,-0.0346,-0.0405,-0.0416,-0.0449,-0.0491,-0.05,-0.0495,-0.0517,-0.0591,-0.0591,-0.0591,-0.0523,-0.0518,-0.0514,0,0,0,0,0,-0.0217,-0.0215,-0.0226,-0.0231,-0.0265,-0.0282,-0.0288,-0.0323,-0.034,-0.0347,-0.0387,-0.0414,-0.0498,-0.0493,-0.0504,-0.05,-0.0591,-0.0591,-0.0591,-0.0525,-0.0519,-0.0514,0,0,0,0,0,0,-0.02,-0.0221,-0.0235,-0.024,-0.026,-0.0291,-0.0302,-0.0322,-0.0358,-0.0368,-0.0415,-0.0428,-0.0459,-0.0491,-0.0485,-0.0526,-0.0549,-0.0551,-0.0495,-0.049,-0.0485,-0.0472,-0.052,0,0,0,0,0,-0.0195,-0.02,-0.0224,-0.0229,-0.0237,-0.0269,-0.0282,-0.0303,-0.0335,-0.0352,-0.0391,-0.0434,-0.0465,-0.0486,-0.0522,-0.0542,-0.0561,-0.0548,-0.0544,-0.054,-0.0538,-0.056,-0.0557,-0.0591,-0.0591,-0.0591,0,0,-0.0189,-0.0202,-0.0205,-0.0225,-0.0245,-0.025,-0.028,-0.0297,-0.0303,-0.0358,-0.0384,-0.0421,-0.0468,-0.0492,-0.0508,-0.0519,-0.0537,-0.054,-0.0536,-0.0536,-0.056,-0.0557,-0.0553,-0.0591,-0.0591,-0.0591,0,0,-0.0175,-0.0191,-0.019,-0.0202,-0.0225,-0.0241,-0.0243,-0.0275,-0.0294,-0.0319,-0.0358,-0.0388,-0.0443,-0.0467,-0.0488,-0.0482,-0.0514,-0.0498,-0.0464,-0.0485,-0.0482,-0.048,-0.0479,-0.0477,-0.0494,-0.0494,-0.0494,0,-0.0171,-0.0169,-0.0192,-0.0194,-0.0199,-0.0232,-0.0229,-0.0248,-0.0289,-0.0298,-0.0322,-0.0389,-0.0428,-0.0447,-0.0447,-0.047,-0.0484,-0.0476,-0.0478,-0.0476,-0.0475,-0.0475,-0.0474,-0.0491,-0.0491,-0.0492,-0.0492,0,-0.0155,-0.0155,-0.0154,-0.0164,-0.0173,-0.0175,-0.0198,-0.0211,-0.0236,-0.0256,-0.0286,-0.0336,-0.0375,-0.0389,-0.0418,-0.0428,-0.0439,-0.0467,-0.0485,-0.0467,-0.0468,-0.0468,-0.0486,-0.0487,-0.0488,-0.0489,0,0,-0.0147,-0.0143,-0.0145,-0.0139,-0.0156,-0.016,-0.0164,-0.0175,-0.0176,-0.0217,-0.022,-0.0273,-0.0302,-0.0328,-0.0365,-0.0383,-0.038,-0.0419,-0.0422,-0.0406,-0.0412,-0.0377,-0.0374,-0.0411,-0.0411,-0.0411,-0.0408,0,-0.0131,-0.0115,-0.012,-0.0105,-0.0099,-0.0119,-0.0117,-0.0132,-0.0153,-0.0165,-0.0207,-0.0234,-0.0277,-0.0297,-0.0319,-0.0368,-0.0381,-0.0377,-0.0443,-0.0444,-0.0406,-0.0373,-0.0377,-0.0372,-0.0408,-0.0409,-0.0409,0,-0.012,-0.0108,-0.0088,-0.007,-0.007,-0.0066,-0.0067,-0.0069,-0.0089,-0.0108,-0.0136,-0.0174,-0.0203,-0.0248,-0.0307,-0.0304,-0.0353,-0.0389,-0.0391,-0.0384,-0.0409,-0.0402,-0.0371,-0.0409,-0.0409,-0.0409,-0.0409,0,-0.0107,-0.0086,-0.0066,-0.0063,-0.0051,-0.0046,-0.0043,-0.0056,-0.0051,-0.0075,-0.0076,-0.0121,-0.014,-0.0207,-0.0274,-0.0299,-0.0329,-0.0376,-0.0385,-0.0383,-0.0412,-0.0412,-0.042,-0.042,-0.042,-0.042,-0.042,0,-0.009,-0.0075,-0.0058,-0.0049,-0.0024,-0.0025,-0.0007,-0.0014,-0.0013,0.0005,-0.0048,-0.0038,-0.0134,-0.0162,-0.0241,-0.029,-0.0304,-0.0366,-0.0378,-0.0385,-0.0383,-0.0447,-0.045,-0.042,-0.042,-0.042,-0.042,0,-0.0082,-0.0072,-0.0047,-0.0026,-0.0019,-0.0004,0.002,0.0036,0.003,0.0053,0.0048,0.0029,0.0002,-0.0077,-0.0164,-0.0233,-0.0298,-0.0318,-0.0301,-0.0311,-0.0349,-0.0348,-0.0334,-0.0333,-0.0332,-0.0331,-0.033,0,-0.0074,-0.006,-0.0033,-0.0017,-0.0008,0.0016,0.0035,0.0046,0.007,0.0102,0.0122,0.0115,0.0133,0.0047,-0.0087,-0.019,-0.0232,-0.0269,-0.0324,-0.0325,-0.0339,-0.0341,-0.0342,-0.0333,-0.0333,-0.0332,-0.0332,0,-0.0056,-0.0052,-0.0031,-0.0,0.0023,0.006,0.0092,0.0123,0.015,0.0193,0.0263,0.0291,0.0212,0.0118,-0.0024,-0.0105,-0.0252,-0.026,-0.0272,-0.0345,-0.0322,-0.0337,-0.0339,-0.0327,-0.0327,-0.0328,-0.0328,-0.0328,-0.0049,-0.0031,-0.0008,0.0021,0.0055,0.0107,0.0145,0.0206,0.028,0.0373,0.039,0.0426,0.0252,0.0086,-0.003,-0.0169,-0.019,-0.0273,-0.0277,-0.028,-0.0271,-0.0246,-0.0234,-0.0234,-0.0234,-0.0234,-0.0234,0,-0.0042,-0.002,0.0015,0.0056,0.01,0.0112,0.0186,0.0251,0.0365,0.0452,0.0546,0.0391,0.0293,0.0121,-0.009,-0.0213,-0.0241,-0.0237,-0.0275,-0.0279,-0.0283,-0.0276,-0.024,-0.024,-0.024,-0.024,0,0,-0.0034,-0.0009,0.0014,0.0084,0.0119,0.0183,0.023,0.0353,0.0429,0.054,0.0549,0.0558,0.0299,0.0132,-0.0034,-0.0129,-0.0162,-0.0134,-0.0123,-0.0152,-0.0154,-0.0303,-0.0296,0,0,0,0,0]}],[{"header":{"parameterUnit":"m.s-1","parameterCategory":2,"la1":30.2991,"la2":30.254,"lo1":-89.0895,"lo2":-89.0444,"dy":0.0017,"dx":0.0017,"nx":28,"ny":28,"refTime":"2026-01-07T09:00:00:Z","depth":"4","parameterNumber":2,"parameterNumberName":"U-component_of_CURRENTS"},"data":[0,0,0,0,0,0,0,0,0,0,0,0,0,0,0,0,0,0,0,0,0,0,0,0,0,0,0,0,0,0,0,0,0,0,0,0,0,0,0,0,0,0,0,0,0,0,0,0,0,0,0,0,0,0,0,0,0,0,0.0254,0.0254,0,0.0285,0.0285,0.0285,0.0321,0.0322,0.0322,0.0323,0.0358,0.0359,0.0359,0,0,0,0,0,0,0,0,0,0,0,0,0,0.0233,0.0233,0.0254,0.0255,0.0255,0.0285,0.0285,0.0286,0.0321,0.0322,0.0322,0.0323,0.0358,0.0359,0.0359,0,0,0,0,0,0,0,0,0,0,0,0,0,0.0251,0.0233,0.0254,0.0276,0.0278,0.0285,0.0285,0.0286,0.0321,0.0322,0.0323,0.0323,0.0358,0.0359,0.0359,0.0348,0,0,0.0362,0.0362,0,0,0,0,0,0,0,0,0.025,0.0252,0.0273,0.0275,0.0277,0.03,0.0291,0.0307,0.0321,0.0305,0.0323,0.0324,0.0339,0.0341,0.0345,0.0349,0.0351,0.0362,0.0362,0.0362,0.0363,0,0,0,0,0,0,0,0.0249,0.0251,0.0266,0.0273,0.0276,0.0287,0.029,0.0294,0.0317,0.0306,0.0309,0.0312,0.034,0.0344,0.0346,0.0351,0.0362,0.0362,0.0363,0.0363,0.0399,0.04,0,0,0,0,0,0,0.0243,0.0249,0.0265,0.0267,0.0265,0.0287,0.029,0.0292,0.0317,0.0322,0.0311,0.0314,0.0343,0.0345,0.0348,0.039,0.0362,0.0363,0.0363,0.0399,0.0399,0.04,0,0,0,0,0,0,0.0243,0.0244,0.0264,0.0259,0.0262,0.0286,0.0288,0.0292,0.0312,0.0321,0.0326,0.0328,0.0343,0.0347,0.0367,0.039,0.0363,0.0364,0.0398,0.0399,0.04,0.0441,0,0,0,0,0,0,0.0242,0.0244,0.0253,0.0259,0.0263,0.0278,0.0287,0.0292,0.0312,0.0315,0.0336,0.034,0.0344,0.0366,0.0368,0.039,0.0364,0.0397,0.0398,0.0399,0.0439,0.0443,0.0446,0,0,0,0,0,0.0241,0.0245,0.0253,0.0256,0.0271,0.0279,0.0282,0.0301,0.0312,0.0322,0.0339,0.034,0.0374,0.0367,0.0369,0.0392,0.0397,0.0398,0.0399,0.0437,0.0442,0.0446,0,0,0,0,0,0,0.0241,0.0249,0.0258,0.0265,0.0278,0.0285,0.0299,0.0307,0.0328,0.034,0.0345,0.035,0.0372,0.0374,0.0366,0.0405,0.0386,0.0388,0.0414,0.0419,0.0423,0.0414,0.0365,0,0,0,0,0,0.0244,0.0251,0.026,0.0268,0.0276,0.029,0.0299,0.0313,0.0327,0.0338,0.0355,0.037,0.0375,0.0391,0.0395,0.0419,0.0408,0.0435,0.0439,0.0442,0.0436,0.0442,0.0446,0.0404,0.0404,0.0404,0,0,0.0246,0.0252,0.0257,0.0269,0.0282,0.0293,0.0298,0.0319,0.0331,0.0337,0.037,0.0379,0.038,0.0406,0.0418,0.0417,0.0449,0.0444,0.0447,0.0439,0.0444,0.0448,0.0452,0.0405,0.0405,0.0404,0,0,0.0249,0.0261,0.0269,0.028,0.0302,0.0309,0.0316,0.0338,0.0355,0.0381,0.0385,0.0407,0.0429,0.0436,0.0438,0.0463,0.046,0.0475,0.0502,0.0509,0.0512,0.0515,0.0509,0.0511,0.0489,0.0489,0.0489,0,0.0257,0.0264,0.0273,0.0285,0.0295,0.0315,0.0327,0.0341,0.0371,0.0384,0.0398,0.0429,0.0437,0.0452,0.0471,0.0472,0.0474,0.0487,0.0514,0.0517,0.0519,0.0512,0.0514,0.0491,0.0491,0.0491,0.0491,0,0.0261,0.0275,0.0282,0.0301,0.0312,0.0328,0.0344,0.0371,0.0396,0.041,0.0441,0.0457,0.0479,0.0488,0.0492,0.0517,0.0513,0.0509,0.0503,0.0526,0.0517,0.0518,0.0494,0.0494,0.0493,0.0492,0,0,0.0255,0.0281,0.0285,0.0298,0.0324,0.0331,0.0357,0.0379,0.04,0.0437,0.0462,0.0484,0.0509,0.0512,0.0525,0.0538,0.0564,0.0545,0.0545,0.054,0.0579,0.0538,0.0535,0.0577,0.0578,0.0578,0.0567,0,0.0259,0.0279,0.029,0.0311,0.0323,0.0348,0.0367,0.0393,0.0421,0.0455,0.0475,0.0506,0.0512,0.0544,0.0556,0.056,0.0569,0.0566,0.0556,0.0555,0.0517,0.0536,0.0579,0.0568,0.0568,0.0568,0.0569,0,0.0257,0.0271,0.0293,0.032,0.0328,0.0352,0.0388,0.041,0.0452,0.0475,0.0512,0.0532,0.0565,0.0568,0.0582,0.0588,0.0588,0.0584,0.0583,0.0528,0.0516,0.0539,0.057,0.057,0.057,0.057,0.057,0,0.0238,0.027,0.0288,0.0298,0.0334,0.0362,0.0393,0.0431,0.0449,0.0507,0.0529,0.0561,0.0595,0.0597,0.0597,0.0606,0.0593,0.0602,0.0554,0.055,0.0572,0.0569,0.06,0.06,0.06,0.06,0.06,0,0.023,0.0243,0.0293,0.0303,0.0336,0.037,0.0409,0.0443,0.0488,0.0504,0.0555,0.0564,0.0609,0.0608,0.06,0.0573,0.0597,0.0553,0.0546,0.0589,0.0588,0.0572,0.057,0.0599,0.0599,0.0599,0.0599,0,0.0204,0.0234,0.0253,0.0305,0.033,0.036,0.0422,0.044,0.0496,0.0522,0.0547,0.0584,0.0587,0.0591,0.0592,0.0578,0.0552,0.0532,0.0565,0.0561,0.0507,0.0506,0.0494,0.0493,0.0491,0.049,0.0489,0,0.0191,0.0203,0.0253,0.0273,0.0308,0.036,0.0388,0.0445,0.0455,0.0511,0.0508,0.0545,0.0558,0.0517,0.053,0.0507,0.0498,0.0497,0.0515,0.0502,0.0497,0.0498,0.0499,0.0487,0.0487,0.0487,0.0486,0,0.0163,0.0186,0.0201,0.0247,0.0285,0.031,0.0361,0.0364,0.0417,0.0465,0.0473,0.0491,0.0485,0.0486,0.0474,0.0452,0.051,0.0484,0.0487,0.0505,0.0493,0.049,0.0493,0.0482,0.0483,0.0483,0.0483,0,0.0141,0.0144,0.0173,0.0208,0.025,0.0264,0.029,0.0312,0.0334,0.0403,0.0396,0.0426,0.0468,0.0453,0.0426,0.0419,0.0425,0.0433,0.0439,0.0444,0.0433,0.0411,0.0367,0,0,0,0,0,0.0123,0.0119,0.0137,0.0163,0.0201,0.0229,0.0266,0.0284,0.0335,0.0329,0.0371,0.0363,0.0375,0.0379,0.0361,0.0391,0.0412,0.037,0.042,0.0458,0.0463,0.0455,0,0,0,0,0,0,0.0105,0.0117,0.0115,0.0124,0.0142,0.0169,0.0195,0.0223,0.0221,0.0283,0.0277,0.0347,0.0339,0.0374,0.0354,0.0358,0.0386,0.0394,0.0393,0.0455,0.0459,0.0463,0.0457,0,0,0,0,0]},{"header":{"parameterUnit":"m.s-1","parameterCategory":2,"la1":30.2991,"la2":30.254,"lo1":-89.0895,"lo2":-89.0444,"dy":0.0017,"dx":0.0017,"nx":28,"ny":28,"refTime":"2026-01-07T09:00:00:Z","depth":"4","parameterNumber":3,"parameterNumberName":"V-component_of_CURRENTS"},"data":[0,0,0,0,0,0,0,0,0,0,0,0,0,0,0,0,0,0,0,0,0,0,0,0,0,0,0,0,0,0,0,0,0,0,0,0,0,0,0,0,0,0,0,0,0,0,0,0,0,0,0,0,0,0,0,0,0,0,0.0011,0.0011,0,-0.002,-0.0021,-0.0022,-0.0044,-0.0044,-0.0044,-0.0044,-0.0087,-0.0088,-0.009,0,0,0,0,0,0,0,0,0,0,0,0,0,0.0025,0.0025,0.0011,0.0011,0.0011,-0.002,-0.0021,-0.0022,-0.0044,-0.0044,-0.0044,-0.0044,-0.0087,-0.0088,-0.009,0,0,0,0,0,0,0,0,0,0,0,0,0,0.0007,0.0025,0.0011,-0.0003,-0.0004,-0.002,-0.0021,-0.0022,-0.0044,-0.0044,-0.0044,-0.0044,-0.0087,-0.0088,-0.009,-0.01,0,0,-0.0095,-0.0096,0,0,0,0,0,0,0,0,0.0008,0.0006,-0.0,-0.0002,-0.0003,-0.0027,-0.0032,-0.0048,-0.0044,-0.0031,-0.0044,-0.0044,-0.0067,-0.007,-0.0079,-0.0103,-0.0104,-0.0095,-0.0096,-0.0097,-0.0098,0,0,0,0,0,0,0,0.0009,0.0007,-0.0003,-0.0001,-0.0002,-0.0017,-0.0019,-0.0035,-0.005,-0.0032,-0.0033,-0.0034,-0.0068,-0.0077,-0.008,-0.0105,-0.0095,-0.0097,-0.0098,-0.0099,-0.017,-0.0171,0,0,0,0,0,0,0.0019,0.0009,-0.0002,-0.0004,0.0005,-0.0017,-0.002,-0.0021,-0.005,-0.0054,-0.0034,-0.0035,-0.0074,-0.0078,-0.0082,-0.0117,-0.0097,-0.0099,-0.01,-0.0169,-0.017,-0.0171,0,0,0,0,0,0,0.0019,0.0018,-0.0001,0.0003,-0.0,-0.0016,-0.0018,-0.0021,-0.0032,-0.0051,-0.0055,-0.004,-0.0074,-0.0079,-0.0101,-0.0118,-0.01,-0.0101,-0.0168,-0.017,-0.0171,-0.0173,0,0,0,0,0,0,0.0019,0.0018,0.0016,0.0004,0.0,-0.0014,-0.0018,-0.0022,-0.0031,-0.0033,-0.0058,-0.0062,-0.0075,-0.0099,-0.0103,-0.012,-0.0102,-0.0167,-0.0169,-0.017,-0.0172,-0.0174,-0.0177,0,0,0,0,0,0.002,0.0018,0.0016,0.0015,-0.0001,-0.0014,-0.0017,-0.003,-0.0031,-0.0039,-0.0056,-0.0061,-0.0112,-0.01,-0.0105,-0.0123,-0.0166,-0.0168,-0.017,-0.0171,-0.0174,-0.0176,0,0,0,0,0,0,0.0019,0.0015,0.0013,0.0009,-0.0002,-0.0017,-0.0025,-0.003,-0.005,-0.0054,-0.0068,-0.0074,-0.0098,-0.0111,-0.0098,-0.015,-0.0142,-0.0145,-0.0141,-0.0144,-0.0146,-0.0131,-0.0104,0,0,0,0,0,0.002,0.0019,0.001,0.0006,0.0001,-0.0011,-0.0019,-0.0028,-0.0044,-0.0052,-0.0071,-0.0093,-0.011,-0.0126,-0.0144,-0.0172,-0.017,-0.0189,-0.0191,-0.0192,-0.0185,-0.0207,-0.021,-0.0178,-0.0178,-0.0178,0,0,0.0017,0.0016,0.0014,0.0006,-0.0004,-0.0011,-0.0017,-0.0031,-0.0037,-0.0054,-0.0076,-0.0097,-0.0117,-0.0147,-0.0161,-0.0162,-0.0199,-0.0195,-0.0196,-0.0188,-0.0209,-0.0212,-0.0215,-0.0179,-0.0179,-0.0178,0,0,0.0013,0.0011,0.0007,0.0001,-0.0011,-0.0016,-0.0018,-0.0039,-0.0048,-0.0071,-0.0084,-0.011,-0.0145,-0.0163,-0.0174,-0.0198,-0.0204,-0.0216,-0.0223,-0.0245,-0.0247,-0.0249,-0.0239,-0.024,-0.0225,-0.0225,-0.0225,0,0.0008,0.0008,0.0003,-0.0002,-0.0004,-0.0016,-0.0021,-0.0031,-0.0058,-0.0065,-0.0078,-0.0126,-0.0148,-0.0171,-0.019,-0.0202,-0.0209,-0.0209,-0.0246,-0.0248,-0.025,-0.024,-0.0241,-0.0225,-0.0225,-0.0225,-0.0225,0,0.0003,0.0002,-0.0001,-0.0005,-0.001,-0.0018,-0.0027,-0.0041,-0.0054,-0.0066,-0.0095,-0.0129,-0.0158,-0.0178,-0.0195,-0.0227,-0.0224,-0.0239,-0.0235,-0.0254,-0.0241,-0.0243,-0.0226,-0.0226,-0.0225,-0.0225,0,0,-0.0003,-0.0004,-0.0005,-0.0001,-0.0011,-0.0013,-0.0023,-0.0031,-0.0032,-0.007,-0.0078,-0.0126,-0.0151,-0.0166,-0.0196,-0.0225,-0.025,-0.0249,-0.025,-0.0229,-0.0283,-0.0273,-0.0273,-0.0282,-0.0282,-0.0283,-0.0263,0,-0.0005,-0.0003,-0.0006,-0.0004,-0.0002,-0.0011,-0.0013,-0.0024,-0.0038,-0.0053,-0.0087,-0.0111,-0.0143,-0.017,-0.0202,-0.0237,-0.0257,-0.0253,-0.0275,-0.0275,-0.0257,-0.0276,-0.0285,-0.0264,-0.0264,-0.0264,-0.0265,0,-0.001,-0.0003,-0.0001,0.0009,0.0008,0.0003,0.0004,-0.0002,-0.002,-0.0035,-0.0066,-0.0092,-0.0134,-0.0165,-0.0218,-0.022,-0.0252,-0.0276,-0.0276,-0.0265,-0.0268,-0.0246,-0.0267,-0.0267,-0.0266,-0.0266,-0.0266,0,-0.0002,0.0001,0.0009,0.001,0.0014,0.0011,0.0008,-0.0002,0.0004,-0.0029,-0.0033,-0.0081,-0.0106,-0.0158,-0.0211,-0.0225,-0.026,-0.028,-0.0289,-0.0287,-0.0298,-0.0296,-0.0314,-0.0314,-0.0314,-0.0315,-0.0315,0,0.0002,0.0008,0.0012,0.0018,0.0029,0.002,0.0027,0.0017,0.0011,0.0021,-0.0028,-0.0036,-0.0114,-0.0142,-0.0196,-0.0237,-0.0245,-0.0284,-0.0288,-0.0298,-0.0297,-0.0298,-0.0296,-0.0314,-0.0314,-0.0314,-0.0314,0,0.0007,0.0009,0.0023,0.003,0.0032,0.0037,0.0048,0.0059,0.0042,0.0052,0.0041,-0.0001,-0.0052,-0.0103,-0.0177,-0.0207,-0.0254,-0.0266,-0.0244,-0.0248,-0.0265,-0.0264,-0.0271,-0.0271,-0.027,-0.027,-0.027,0,0.001,0.0017,0.0035,0.0048,0.0049,0.0058,0.0072,0.0069,0.0085,0.0076,0.0085,0.0038,0.0003,-0.0071,-0.0144,-0.0216,-0.0237,-0.0242,-0.0285,-0.026,-0.0264,-0.0263,-0.0263,-0.0269,-0.0269,-0.0269,-0.0269,0,0.0019,0.0024,0.0039,0.0067,0.0083,0.0108,0.0122,0.0137,0.0138,0.0136,0.0116,0.0064,0.0016,-0.0067,-0.0117,-0.0176,-0.0233,-0.024,-0.0242,-0.0282,-0.0258,-0.0262,-0.0262,-0.0268,-0.0268,-0.0268,-0.0268,0,0.0027,0.004,0.0061,0.0085,0.0113,0.0139,0.0147,0.016,0.0171,0.0161,0.0154,0.0085,0.0044,-0.0045,-0.0094,-0.0147,-0.0175,-0.0193,-0.0198,-0.02,-0.0197,-0.0158,-0.0138,0,0,0,0,0,0.0035,0.0051,0.0078,0.0103,0.0134,0.0147,0.0178,0.0185,0.0191,0.0185,0.0169,0.0119,0.0026,-0.002,-0.0074,-0.0097,-0.0183,-0.016,-0.0206,-0.0262,-0.0263,-0.0274,0,0,0,0,0,0,0.004,0.0065,0.0079,0.0116,0.0133,0.0167,0.0185,0.019,0.0184,0.0177,0.0125,0.0106,0.0012,0.0051,-0.0078,-0.0095,-0.013,-0.0204,-0.0204,-0.0261,-0.0262,-0.0263,-0.0275,0,0,0,0,0]}]]